JH1LWU-13 Weather Reports


time (UTC)temp
F
wind
direction
speed
knots
gust
knots
rain 1hr
in
rain 24hr
in
rain mn
in
humidity
%
barometer
mb
20260505100446 62 15 3.5 4.3 0.00 0.00 0.00 39 1017.0
20260505093445 63 110 1.7 2.6 0.00 0.00 0.00 43 1018.0
20260505090444 64 28 0.0 3.5 0.00 0.00 0.00 41 1017.0
20260505083443 65 314 1.7 5.2 0.00 0.00 0.00 38 1017.0
20260505080442 66 170 0.9 3.5 0.00 0.00 0.00 34 1016.0
20260505073441 68 153 2.6 4.3 0.00 0.00 0.00 28 1017.0
20260505070440 70 174 1.7 5.2 0.00 0.00 0.00 25 1015.0
20260505063439 70 218 3.5 10.4 0.00 0.00 0.00 20 1015.0
20260505060438 71 246 4.3 7.0 0.00 0.00 0.00 16 1015.0
20260505053437 71 167 0.0 3.5 0.00 0.00 0.00 17 1015.0
20260505050436 72 263 0.0 0.0 0.00 0.00 0.00 18 1017.0
20260505040434 72 339 0.9 4.3 0.00 0.00 0.00 20 1017.0
20260505033433 72 281 0.0 2.6 0.00 0.00 0.00 21 1016.0
20260505030432 73 73 0.0 2.6 0.00 0.00 0.00 21 1016.0
20260505023431 72 200 0.9 3.5 0.00 0.00 0.00 20 1016.0
20260505020430 72 6 0.0 0.0 0.00 0.00 0.00 20 1016.0
20260505013429 73 187 0.9 1.7 0.00 0.00 0.00 20 1015.0
20260505010428 71 10 0.0 1.7 0.00 0.00 0.00 21 1015.0
20260505003427 70 141 2.6 2.6 0.00 0.00 0.00 22 1015.0
20260505000428 69 318 0.0 2.6 0.00 0.00 0.00 24 1016.0
20260504233425 68 30 0.0 1.7 0.00 0.00 0.00 24 1015.0
20260504230424 66 55 0.0 1.7 0.00 0.00 0.00 26 1015.0
20260504223423 64 271 0.0 1.7 0.00 0.00 0.00 28 1015.0
20260504220422 62 101 0.0 0.0 0.00 0.00 0.00 30 1015.0
20260504213421 60 267 0.9 0.9 0.00 0.00 0.00 35 1013.0
20260504210420 57 117 0.9 1.7 0.00 0.00 0.00 38 1015.0
20260504203419 55 201 2.6 3.5 0.00 0.00 0.00 39 1013.0
20260504200418 55 4 0.0 0.9 0.00 0.00 0.00 40 1012.0
20260504193417 55 356 0.0 0.9 0.00 0.00 0.00 41 1010.0
20260504190416 55 124 1.7 5.2 0.00 0.00 0.00 40 1010.0
20260504183415 55 297 0.0 2.6 0.00 0.00 0.00 41 1011.0
20260504180414 55 215 0.0 2.6 0.00 0.00 0.00 40 1009.0
20260504173413 55 253 1.7 4.3 0.00 0.00 0.00 39 1008.0
20260504170412 56 174 2.6 5.2 0.00 0.00 0.00 39 1010.0
20260504160410 57 93 5.2 5.2 0.00 0.00 0.00 38 1007.0
20260504150408 59 141 0.9 2.6 0.00 0.00 0.00 38 1007.0
20260504140406 61 354 1.7 1.7 0.00 0.00 0.00 38 1004.0
20260504130404 64 141 0.9 3.5 0.00 0.00 0.00 37 1003.0
20260504110400 67 224 1.7 3.5 0.00 0.00 0.00 55 999.0